This is the latest recevied weather packets stored in our database for station/object K1AWR. If no packets are shown the sender has not sent any weather packets the latest 10 day(s).
| Time | Temp. | Humidity | Pressure | Rain* | Wind** | Luminosity | Snow |
|---|---|---|---|---|---|---|---|
| 1777855312 | 7.22° C | 52% | 1010.7 hPa | 0 mm | - | 0 W/m² | - |
| 1777855008 | 7.78° C | 58% | 1010.6 hPa | 0 mm | - | 0 W/m² | - |
| 1777854705 | 7.78° C | 49% | 1010.6 hPa | 0 mm | - | 0 W/m² | - |
| 1777854402 | 8.33° C | 51% | 1010.5 hPa | 0 mm | - | 0 W/m² | - |
| 1777854099 | 8.33° C | 54% | 1010.3 hPa | 0 mm | - | 0 W/m² | - |
| 1777853797 | 8.89° C | 45% | 1010.4 hPa | 0 mm | - | 0 W/m² | - |
| 1777853493 | 8.89° C | 44% | 1010.2 hPa | 0 mm | - | 0 W/m² | - |
| 1777853190 | 9.44° C | 49% | 1010.2 hPa | 0 mm | - | 0 W/m² | - |
| 1777852887 | 9.44° C | 46% | 1010 hPa | 0 mm | - | 1 W/m² | - |
| 1777852586 | 10° C | 40% | 1010 hPa | 0 mm | - | 1 W/m² | - |
| 1777852282 | 10° C | 44% | 1009.9 hPa | 0 mm | - | 2 W/m² | - |
| 1777851980 | 10.56° C | 43% | 1010 hPa | 0 mm | - | 4 W/m² | - |
| 1777851678 | 10.56° C | 41% | 1010 hPa | 0 mm | - | 5 W/m² | - |
| 1777851375 | 11.67° C | 37% | 1009.8 hPa | 0 mm | - | 8 W/m² | - |
| 1777851070 | 11.67° C | 36% | 1009.9 hPa | 0 mm | - | 10 W/m² | - |
| 1777850767 | 12.22° C | 34% | 1009.8 hPa | 0 mm | - | 12 W/m² | - |
| 1777850465 | 12.22° C | 33% | 1009.7 hPa | 0 mm | - | 14 W/m² | - |
| 1777850163 | 12.22° C | 33% | 1009.9 hPa | 0 mm | - | 16 W/m² | - |
| 1777849859 | 12.78° C | 32% | 1009.5 hPa | 0 mm | - | 18 W/m² | - |
| 1777849555 | 12.78° C | 36% | 1009.5 hPa | 0 mm | - | 20 W/m² | - |
| 1777849253 | 12.78° C | 32% | 1009.5 hPa | 0 mm | - | 21 W/m² | - |
| 1777848950 | 12.78° C | 34% | 1009.7 hPa | 0 mm | - | 25 W/m² | - |
| 1777848645 | 12.78° C | 34% | 1009.7 hPa | 0 mm | - | 24 W/m² | - |
| 1777848343 | 12.78° C | 36% | 1009.8 hPa | 0 mm | - | 27 W/m² | - |
| 1777848040 | 12.78° C | 34% | 1009.7 hPa | 0 mm | - | 28 W/m² | - |
* Rain latest hour (hover to see other rain measurements)
** Current wind speed in m/s (hover to see current wind gust speed)